Time,TemperatureF,DewpointF,PressureIn,WindDirection,WindDirectionDegrees,WindSpeedMPH,WindSpeedGustMPH,Humidity,HourlyPrecipIn,Conditions,Clouds,dailyrainin,SoftwareType,DateUTC
2014-08-22 00:02:00,63.7,61.0,29.95,ENE,75,0.9,4.9,91,0.00,,,0.00,meteobridge,2014-08-22 07:02:00,
2014-08-22 00:07:00,63.7,61.0,29.95,ENE,76,2.0,6.9,91,0.00,,,0.00,meteobridge,2014-08-22 07:07:00,
2014-08-22 00:12:00,63.7,61.0,29.95,East,90,0.9,2.9,91,0.00,,,0.00,meteobridge,2014-08-22 07:12:00,
2014-08-22 00:17:00,63.7,61.0,29.95,ENE,65,0.9,4.9,91,0.00,,,0.00,meteobridge,2014-08-22 07:17:00,
2014-08-22 00:23:00,63.7,61.0,29.95,NE,42,2.9,2.9,91,0.00,,,0.00,meteobridge,2014-08-22 07:23:00,
2014-08-22 00:28:00,63.5,60.8,29.94,ENE,65,0.0,2.9,91,0.00,,,0.00,meteobridge,2014-08-22 07:28:00,
2014-08-22 00:33:00,63.5,60.8,29.94,NE,48,2.0,4.0,91,0.00,,,0.00,meteobridge,2014-08-22 07:33:00,
2014-08-22 00:38:00,63.3,60.6,29.93,East,83,2.0,2.0,91,0.00,,,0.00,meteobridge,2014-08-22 07:38:00,
2014-08-22 00:43:00,63.3,60.6,29.93,ENE,63,0.9,2.9,91,0.00,,,0.00,meteobridge,2014-08-22 07:43:00,
2014-08-22 00:48:00,63.3,60.6,29.94,East,80,2.0,2.9,91,0.00,,,0.00,meteobridge,2014-08-22 07:48:00,
2014-08-22 00:53:00,63.1,60.4,29.94,East,81,2.0,2.0,91,0.00,,,0.00,meteobridge,2014-08-22 07:53:00,
2014-08-22 00:58:00,63.1,60.4,29.94,ESE,102,4.0,4.9,91,0.00,,,0.00,meteobridge,2014-08-22 07:58:00,
2014-08-22 01:03:00,63.1,60.4,29.94,East,95,2.0,8.1,91,0.00,,,0.00,meteobridge,2014-08-22 08:03:00,
2014-08-22 01:08:00,63.1,60.4,29.94,ENE,70,2.0,2.9,91,0.00,,,0.00,meteobridge,2014-08-22 08:08:00,
2014-08-22 01:13:00,63.1,60.4,29.94,East,101,0.0,2.9,91,0.00,,,0.00,meteobridge,2014-08-22 08:13:00,
2014-08-22 01:18:00,63.1,60.4,29.94,NE,48,2.9,2.9,91,0.00,,,0.00,meteobridge,2014-08-22 08:18:00,
2014-08-22 01:23:00,63.0,60.3,29.94,ENE,66,0.0,0.9,91,0.00,,,0.00,meteobridge,2014-08-22 08:23:00,
2014-08-22 01:29:00,63.0,60.3,29.93,ENE,65,0.0,0.9,91,0.00,,,0.00,meteobridge,2014-08-22 08:29:00,
2014-08-22 01:34:00,63.0,60.3,29.94,ENE,65,0.0,0.9,91,0.00,,,0.00,meteobridge,2014-08-22 08:34:00,
2014-08-22 01:39:00,62.8,60.4,29.93,ENE,65,0.0,2.0,92,0.00,,,0.00,meteobridge,2014-08-22 08:39:00,
2014-08-22 01:44:00,62.8,60.1,29.94,ENE,65,0.9,2.0,91,0.00,,,0.00,meteobridge,2014-08-22 08:44:00,
2014-08-22 01:49:00,62.8,60.4,29.94,ENE,65,0.0,0.9,92,0.00,,,0.00,meteobridge,2014-08-22 08:49:00,
2014-08-22 01:54:00,62.8,60.4,29.94,ENE,65,0.0,2.0,92,0.00,,,0.00,meteobridge,2014-08-22 08:54:00,
2014-08-22 01:59:00,62.8,60.4,29.94,ENE,65,0.0,2.0,92,0.00,,,0.00,meteobridge,2014-08-22 08:59:00,
2014-08-22 02:04:00,62.8,60.4,29.94,ENE,65,0.0,2.0,92,0.00,,,0.00,meteobridge,2014-08-22 09:04:00,
2014-08-22 02:10:00,62.8,60.4,29.94,ENE,65,0.0,0.0,92,0.00,,,0.00,meteobridge,2014-08-22 09:10:00,
2014-08-22 02:15:00,62.8,60.4,29.94,ENE,65,0.0,0.0,92,0.00,,,0.00,meteobridge,2014-08-22 09:15:00,
2014-08-22 02:20:00,62.8,60.4,29.94,ENE,65,0.0,0.0,92,0.00,,,0.00,meteobridge,2014-08-22 09:20:00,
2014-08-22 02:26:00,62.8,60.4,29.94,ENE,65,0.0,0.0,92,0.00,,,0.00,meteobridge,2014-08-22 09:26:00,
2014-08-22 02:31:00,62.8,60.4,29.94,ENE,65,0.0,0.0,92,0.00,,,0.00,meteobridge,2014-08-22 09:31:00,
2014-08-22 02:36:00,63.0,60.6,29.93,ENE,65,0.0,0.0,92,0.00,,,0.00,meteobridge,2014-08-22 09:36:00,
2014-08-22 02:41:00,63.0,60.6,29.93,ENE,65,0.0,0.0,92,0.00,,,0.00,meteobridge,2014-08-22 09:41:00,
2014-08-22 02:46:00,63.0,60.6,29.93,ENE,65,0.0,0.0,92,0.00,,,0.00,meteobridge,2014-08-22 09:46:00,
2014-08-22 02:51:00,63.0,60.6,29.93,ENE,65,0.0,0.0,92,0.00,,,0.00,meteobridge,2014-08-22 09:51:00,
2014-08-22 02:56:00,63.0,60.6,29.93,ENE,65,0.0,0.0,92,0.00,,,0.00,meteobridge,2014-08-22 09:56:00,
2014-08-22 03:01:00,62.8,60.4,29.93,ENE,65,0.0,0.0,92,0.00,,,0.00,meteobridge,2014-08-22 10:01:00,
2014-08-22 03:06:00,62.8,60.4,29.93,ENE,65,0.0,0.0,92,0.00,,,0.00,meteobridge,2014-08-22 10:06:00,
2014-08-22 03:11:00,62.8,60.4,29.93,ENE,65,0.0,0.0,92,0.00,,,0.00,meteobridge,2014-08-22 10:11:00,
2014-08-22 03:17:00,62.8,60.4,29.93,ENE,65,0.0,0.0,92,0.00,,,0.00,meteobridge,2014-08-22 10:17:00,
2014-08-22 03:22:00,62.8,60.4,29.93,ENE,65,0.0,0.0,92,0.00,,,0.00,meteobridge,2014-08-22 10:22:00,
2014-08-22 03:27:00,62.8,60.4,29.93,ENE,65,0.0,0.0,92,0.00,,,0.00,meteobridge,2014-08-22 10:27:00,
2014-08-22 03:32:00,62.8,60.4,29.93,ENE,65,0.0,0.0,92,0.00,,,0.00,meteobridge,2014-08-22 10:32:00,
2014-08-22 03:38:00,62.8,60.8,29.93,SE,138,0.0,0.9,93,0.00,,,0.00,meteobridge,2014-08-22 10:38:00,
2014-08-22 03:43:00,62.8,60.8,29.92,SE,138,0.0,0.0,93,0.00,,,0.00,meteobridge,2014-08-22 10:43:00,
2014-08-22 03:48:00,62.8,60.8,29.92,NE,49,0.0,0.0,93,0.00,,,0.00,meteobridge,2014-08-22 10:48:00,
2014-08-22 03:53:00,62.8,60.4,29.92,NE,49,2.0,2.0,92,0.00,,,0.00,meteobridge,2014-08-22 10:53:00,
2014-08-22 03:58:00,62.8,60.4,29.92,ENE,67,0.0,2.9,92,0.00,,,0.00,meteobridge,2014-08-22 10:58:00,
2014-08-22 04:03:00,62.8,60.8,29.93,ESE,113,4.0,4.0,93,0.00,,,0.00,meteobridge,2014-08-22 11:03:00,
2014-08-22 04:08:00,62.8,60.8,29.93,ESE,105,2.0,2.9,93,0.00,,,0.00,meteobridge,2014-08-22 11:08:00,
2014-08-22 04:13:00,62.8,60.8,29.93,ENE,69,0.9,2.9,93,0.00,,,0.00,meteobridge,2014-08-22 11:13:00,
2014-08-22 04:18:00,62.8,60.8,29.93,East,79,2.0,2.9,93,0.00,,,0.00,meteobridge,2014-08-22 11:18:00,
2014-08-22 04:23:00,62.8,60.8,29.93,East,98,0.0,2.0,93,0.00,,,0.00,meteobridge,2014-08-22 11:23:00,
2014-08-22 04:28:00,62.8,60.8,29.93,East,98,0.9,0.9,93,0.00,,,0.00,meteobridge,2014-08-22 11:28:00,
2014-08-22 04:33:00,62.8,60.8,29.93,East,97,0.0,0.0,93,0.00,,,0.00,meteobridge,2014-08-22 11:33:00,
2014-08-22 04:38:00,62.8,60.8,29.92,NNE,17,0.0,2.9,93,0.00,,,0.00,meteobridge,2014-08-22 11:38:00,
2014-08-22 04:43:00,62.6,60.6,29.92,NNE,20,0.0,0.9,93,0.00,,,0.00,meteobridge,2014-08-22 11:43:00,
2014-08-22 04:48:00,62.6,60.6,29.92,NE,34,0.9,4.0,93,0.00,,,0.00,meteobridge,2014-08-22 11:48:00,
2014-08-22 04:54:00,62.6,60.6,29.91,NE,34,0.0,0.0,93,0.00,,,0.00,meteobridge,2014-08-22 11:54:00,
2014-08-22 04:59:00,62.4,60.4,29.91,NE,34,0.0,0.0,93,0.00,,,0.00,meteobridge,2014-08-22 11:59:00,
2014-08-22 05:05:00,62.4,60.4,29.91,NE,34,0.0,0.0,93,0.00,,,0.00,meteobridge,2014-08-22 12:05:00,
2014-08-22 05:10:00,62.4,60.4,29.91,NE,34,0.0,2.0,93,0.00,,,0.00,meteobridge,2014-08-22 12:10:00,
2014-08-22 05:15:00,62.2,60.3,29.91,NE,34,0.0,0.0,93,0.00,,,0.00,meteobridge,2014-08-22 12:15:00,
2014-08-22 05:20:00,62.2,59.9,29.91,NE,34,0.0,0.0,92,0.00,,,0.00,meteobridge,2014-08-22 12:20:00,
2014-08-22 05:26:00,62.2,60.3,29.91,NE,34,0.0,0.9,93,0.00,,,0.00,meteobridge,2014-08-22 12:26:00,
2014-08-22 05:31:00,62.2,60.3,29.91,NE,34,0.0,0.0,93,0.00,,,0.00,meteobridge,2014-08-22 12:31:00,
2014-08-22 05:36:00,62.2,60.3,29.91,NE,34,0.0,0.9,93,0.00,,,0.00,meteobridge,2014-08-22 12:36:00,
2014-08-22 05:41:00,62.2,60.3,29.91,NE,34,0.9,2.0,93,0.00,,,0.00,meteobridge,2014-08-22 12:41:00,
2014-08-22 05:47:00,62.2,60.3,29.91,NE,34,0.0,0.9,93,0.00,,,0.00,meteobridge,2014-08-22 12:47:00,
2014-08-22 05:52:00,62.2,60.3,29.91,NE,34,0.0,0.9,93,0.00,,,0.00,meteobridge,2014-08-22 12:52:00,
2014-08-22 05:57:00,62.2,60.3,29.92,NE,34,0.0,0.0,93,0.00,,,0.00,meteobridge,2014-08-22 12:57:00,
2014-08-22 06:03:00,62.2,60.3,29.92,NE,34,0.0,0.9,93,0.00,,,0.00,meteobridge,2014-08-22 13:03:00,
2014-08-22 06:08:00,62.2,60.3,29.92,NE,34,0.0,2.0,93,0.00,,,0.00,meteobridge,2014-08-22 13:08:00,
2014-08-22 06:13:00,62.2,60.3,29.92,NE,34,0.0,0.9,93,0.00,,,0.00,meteobridge,2014-08-22 13:13:00,
2014-08-22 06:19:00,62.2,60.3,29.92,NE,34,0.0,0.9,93,0.00,,,0.00,meteobridge,2014-08-22 13:19:00,
2014-08-22 06:24:00,62.2,60.3,29.92,NE,34,2.0,2.0,93,0.00,,,0.00,meteobridge,2014-08-22 13:24:00,
2014-08-22 06:29:00,62.1,60.1,29.92,NE,34,0.0,0.0,93,0.00,,,0.00,meteobridge,2014-08-22 13:29:00,
2014-08-22 06:34:00,62.1,60.1,29.93,NE,34,0.0,0.9,93,0.00,,,0.00,meteobridge,2014-08-22 13:34:00,
2014-08-22 06:40:00,62.1,60.1,29.93,NE,34,0.0,0.0,93,0.00,,,0.00,meteobridge,2014-08-22 13:40:00,
2014-08-22 06:45:00,62.1,60.1,29.93,NE,34,0.0,0.0,93,0.00,,,0.00,meteobridge,2014-08-22 13:45:00,
2014-08-22 06:50:00,62.1,60.1,29.93,NE,34,0.0,0.0,93,0.00,,,0.00,meteobridge,2014-08-22 13:50:00,
2014-08-22 06:55:00,62.2,60.3,29.93,NE,34,0.0,0.0,93,0.00,,,0.00,meteobridge,2014-08-22 13:55:00,
2014-08-22 07:00:00,62.2,60.3,29.93,NE,34,0.9,0.9,93,0.00,,,0.00,meteobridge,2014-08-22 14:00:00,
2014-08-22 07:05:00,62.2,60.3,29.93,NE,52,0.0,0.0,93,0.00,,,0.00,meteobridge,2014-08-22 14:05:00,
2014-08-22 07:10:00,62.2,60.4,29.93,NE,52,0.0,2.9,94,0.00,,,0.00,meteobridge,2014-08-22 14:10:00,
2014-08-22 07:15:00,62.4,60.6,29.93,NE,43,0.0,2.0,94,0.00,,,0.00,meteobridge,2014-08-22 14:15:00,
2014-08-22 07:20:00,62.4,60.6,29.93,NE,36,2.0,2.9,94,0.00,,,0.00,meteobridge,2014-08-22 14:20:00,
2014-08-22 07:26:00,62.4,60.4,29.93,NE,36,0.0,2.0,93,0.00,,,0.00,meteobridge,2014-08-22 14:26:00,
2014-08-22 07:31:00,62.4,60.4,29.93,NE,50,0.9,0.9,93,0.00,,,0.00,meteobridge,2014-08-22 14:31:00,
2014-08-22 07:36:00,62.6,60.6,29.93,East,88,0.0,2.9,93,0.00,,,0.00,meteobridge,2014-08-22 14:36:00,
2014-08-22 07:41:00,62.6,60.8,29.93,East,88,0.0,0.0,94,0.00,,,0.00,meteobridge,2014-08-22 14:41:00,
2014-08-22 07:46:00,62.8,61.0,29.93,SE,125,0.0,2.0,94,0.00,,,0.00,meteobridge,2014-08-22 14:46:00,
2014-08-22 07:51:00,63.0,61.2,29.93,SE,125,0.0,0.0,94,0.00,,,0.00,meteobridge,2014-08-22 14:51:00,
2014-08-22 07:56:00,63.0,61.0,29.94,SE,128,0.9,2.0,93,0.00,,,0.00,meteobridge,2014-08-22 14:56:00,
2014-08-22 08:01:00,63.1,61.2,29.94,SE,125,2.9,2.9,93,0.00,,,0.00,meteobridge,2014-08-22 15:01:00,
2014-08-22 08:07:00,63.3,61.3,29.94,SE,125,0.0,0.9,93,0.00,,,0.00,meteobridge,2014-08-22 15:07:00,
2014-08-22 08:12:00,63.5,61.5,29.94,ENE,72,2.0,4.0,93,0.00,,,0.00,meteobridge,2014-08-22 15:12:00,
2014-08-22 08:17:00,63.7,61.7,29.94,East,100,2.0,2.9,93,0.00,,,0.00,meteobridge,2014-08-22 15:17:00,
2014-08-22 08:22:00,63.9,61.5,29.95,East,79,2.9,4.9,92,0.00,,,0.00,meteobridge,2014-08-22 15:22:00,
2014-08-22 08:27:00,64.0,61.7,29.95,ESE,116,0.9,2.9,92,0.00,,,0.00,meteobridge,2014-08-22 15:27:00,
2014-08-22 08:32:00,64.2,61.9,29.96,SE,141,2.0,2.9,92,0.00,,,0.00,meteobridge,2014-08-22 15:32:00,
2014-08-22 08:37:00,64.4,61.7,29.96,SE,140,4.0,4.0,91,0.00,,,0.00,meteobridge,2014-08-22 15:37:00,
2014-08-22 08:42:00,64.6,61.9,29.96,ESE,105,2.9,4.0,91,0.00,,,0.00,meteobridge,2014-08-22 15:42:00,
2014-08-22 08:47:00,64.8,61.7,29.96,East,86,2.9,2.9,90,0.00,,,0.00,meteobridge,2014-08-22 15:47:00,
2014-08-22 08:52:00,64.9,61.9,29.96,ENE,76,4.9,6.0,90,0.00,,,0.00,meteobridge,2014-08-22 15:52:00,
2014-08-22 08:57:00,65.1,62.1,29.95,NE,49,2.0,6.0,90,0.00,,,0.00,meteobridge,2014-08-22 15:57:00,
2014-08-22 09:02:00,65.1,61.9,29.96,East,93,2.9,4.0,89,0.00,,,0.00,meteobridge,2014-08-22 16:02:00,
2014-08-22 09:07:00,65.5,61.9,29.96,NE,56,0.9,6.0,88,0.00,,,0.00,meteobridge,2014-08-22 16:07:00,
2014-08-22 09:12:00,65.7,62.1,29.96,SSE,152,2.0,6.9,88,0.00,,,0.00,meteobridge,2014-08-22 16:12:00,
2014-08-22 09:17:00,65.8,62.4,29.96,ESE,110,4.0,6.9,89,0.00,,,0.00,meteobridge,2014-08-22 16:17:00,
2014-08-22 09:22:00,66.0,62.4,29.96,ESE,109,0.9,4.0,88,0.00,,,0.00,meteobridge,2014-08-22 16:22:00,
2014-08-22 09:27:00,66.4,62.8,29.96,East,94,4.9,4.9,88,0.00,,,0.00,meteobridge,2014-08-22 16:27:00,
2014-08-22 09:32:00,66.6,62.6,29.96,SE,132,4.9,4.9,87,0.00,,,0.00,meteobridge,2014-08-22 16:32:00,
2014-08-22 09:37:00,66.9,63.0,29.96,East,90,2.0,4.9,87,0.00,,,0.00,meteobridge,2014-08-22 16:37:00,
2014-08-22 09:42:00,67.5,63.1,29.96,ESE,102,2.9,4.9,86,0.00,,,0.00,meteobridge,2014-08-22 16:42:00,
2014-08-22 09:47:00,67.8,63.1,29.96,SE,133,4.0,6.9,85,0.00,,,0.00,meteobridge,2014-08-22 16:47:00,
2014-08-22 09:52:00,68.2,63.5,29.97,SSW,203,2.0,4.9,85,0.00,,,0.00,meteobridge,2014-08-22 16:52:00,
2014-08-22 09:57:00,68.4,63.7,29.97,SSE,161,0.9,4.0,85,0.00,,,0.00,meteobridge,2014-08-22 16:57:00,
2014-08-22 10:02:00,68.5,63.9,29.97,ESE,117,2.9,4.0,85,0.00,,,0.00,meteobridge,2014-08-22 17:02:00,
2014-08-22 10:07:00,68.9,63.9,29.97,SE,138,4.0,4.0,84,0.00,,,0.00,meteobridge,2014-08-22 17:07:00,
2014-08-22 10:12:00,69.3,63.9,29.97,SE,142,0.9,4.0,83,0.00,,,0.00,meteobridge,2014-08-22 17:12:00,
2014-08-22 10:18:00,69.4,63.7,29.96,SSW,192,4.9,4.9,82,0.00,,,0.00,meteobridge,2014-08-22 17:18:00,
2014-08-22 10:23:00,69.6,63.9,29.97,SW,219,6.0,8.1,82,0.00,,,0.00,meteobridge,2014-08-22 17:23:00,
2014-08-22 10:28:00,70.0,63.9,29.97,ESE,118,2.9,6.0,81,0.00,,,0.00,meteobridge,2014-08-22 17:28:00,
2014-08-22 10:33:00,70.3,64.2,29.97,SSE,151,2.0,8.1,81,0.00,,,0.00,meteobridge,2014-08-22 17:33:00,
2014-08-22 10:38:00,70.5,63.7,29.97,SE,145,4.0,6.0,79,0.00,,,0.00,meteobridge,2014-08-22 17:38:00,
2014-08-22 10:43:00,70.5,63.7,29.98,SW,215,4.9,6.9,79,0.00,,,0.00,meteobridge,2014-08-22 17:43:00,
2014-08-22 10:48:00,70.5,63.7,29.98,South,190,4.9,6.9,79,0.00,,,0.00,meteobridge,2014-08-22 17:48:00,
2014-08-22 10:53:00,70.3,63.1,29.98,South,182,6.0,6.0,78,0.00,,,0.00,meteobridge,2014-08-22 17:53:00,
2014-08-22 10:58:00,70.3,63.5,29.99,SW,236,4.0,6.9,79,0.00,,,0.00,meteobridge,2014-08-22 17:58:00,
2014-08-22 11:03:00,70.0,63.1,29.99,South,175,4.0,6.9,79,0.00,,,0.00,meteobridge,2014-08-22 18:03:00,
2014-08-22 11:08:00,69.6,62.8,29.99,SW,217,4.0,6.9,79,0.00,,,0.00,meteobridge,2014-08-22 18:08:00,
2014-08-22 11:13:00,69.4,63.0,29.99,SSW,209,6.0,6.0,80,0.00,,,0.00,meteobridge,2014-08-22 18:13:00,
2014-08-22 11:18:00,69.3,62.8,29.99,SW,220,4.0,6.0,80,0.00,,,0.00,meteobridge,2014-08-22 18:18:00,
2014-08-22 11:23:00,69.1,63.0,29.99,West,264,0.9,4.0,81,0.00,,,0.00,meteobridge,2014-08-22 18:23:00,
2014-08-22 11:28:00,69.1,63.0,29.99,SSW,203,2.9,4.9,81,0.00,,,0.00,meteobridge,2014-08-22 18:28:00,
2014-08-22 11:33:00,69.1,62.6,29.99,South,170,4.0,6.9,80,0.00,,,0.00,meteobridge,2014-08-22 18:33:00,
2014-08-22 11:38:00,69.1,63.0,29.98,SSW,200,0.9,4.0,81,0.00,,,0.00,meteobridge,2014-08-22 18:38:00,
2014-08-22 11:43:00,69.3,62.8,29.98,SSW,202,4.0,4.9,80,0.00,,,0.00,meteobridge,2014-08-22 18:43:00,
2014-08-22 11:48:00,69.6,63.1,29.98,WSW,238,2.0,4.9,80,0.00,,,0.00,meteobridge,2014-08-22 18:48:00,
2014-08-22 11:53:00,70.2,63.3,29.98,SSW,199,0.0,4.0,79,0.00,,,0.00,meteobridge,2014-08-22 18:53:00,
2014-08-22 11:58:00,70.9,63.7,29.98,SSE,159,2.9,6.0,78,0.00,,,0.00,meteobridge,2014-08-22 18:58:00,
2014-08-22 12:03:00,71.4,63.9,29.98,SSW,202,0.9,6.9,77,0.00,,,0.00,meteobridge,2014-08-22 19:03:00,
2014-08-22 12:08:00,72.0,63.7,29.98,WSW,238,2.0,4.9,75,0.00,,,0.00,meteobridge,2014-08-22 19:08:00,
2014-08-22 12:13:00,72.7,64.2,29.98,SW,233,4.0,4.0,75,0.00,,,0.00,meteobridge,2014-08-22 19:13:00,
2014-08-22 12:18:00,73.0,63.9,29.98,SSW,195,6.0,6.9,73,0.00,,,0.00,meteobridge,2014-08-22 19:18:00,
2014-08-22 12:23:00,73.6,64.8,29.98,SW,234,4.9,6.9,74,0.00,,,0.00,meteobridge,2014-08-22 19:23:00,
2014-08-22 12:28:00,73.9,64.4,29.98,SW,218,4.9,6.9,72,0.00,,,0.00,meteobridge,2014-08-22 19:28:00,
2014-08-22 12:33:00,74.1,64.6,29.98,SW,219,2.9,6.9,72,0.00,,,0.00,meteobridge,2014-08-22 19:33:00,
2014-08-22 12:38:00,74.3,64.8,29.97,SW,231,4.0,6.9,72,0.00,,,0.00,meteobridge,2014-08-22 19:38:00,
2014-08-22 12:43:00,74.5,64.0,29.98,SW,219,2.0,6.0,70,0.00,,,0.00,meteobridge,2014-08-22 19:43:00,
2014-08-22 12:48:00,74.5,64.4,29.97,South,188,4.9,4.9,71,0.00,,,0.00,meteobridge,2014-08-22 19:48:00,
2014-08-22 12:53:00,74.5,64.4,29.97,SSW,209,4.0,6.9,71,0.00,,,0.00,meteobridge,2014-08-22 19:53:00,
2014-08-22 12:59:00,74.3,63.9,29.97,SW,233,8.1,8.1,70,0.00,,,0.00,meteobridge,2014-08-22 19:59:00,
2014-08-22 13:04:00,74.3,64.2,29.97,SSW,203,2.0,4.9,71,0.00,,,0.00,meteobridge,2014-08-22 20:04:00,
2014-08-22 13:09:00,74.5,64.4,29.97,SSW,201,4.9,6.9,71,0.00,,,0.00,meteobridge,2014-08-22 20:09:00,
2014-08-22 13:14:00,74.5,64.0,29.97,SW,232,4.9,6.9,70,0.00,,,0.00,meteobridge,2014-08-22 20:14:00,
2014-08-22 13:19:00,74.5,64.9,29.97,West,271,2.9,6.0,72,0.00,,,0.00,meteobridge,2014-08-22 20:19:00,
2014-08-22 13:24:00,74.8,64.4,29.97,SW,226,6.0,8.9,70,0.00,,,0.00,meteobridge,2014-08-22 20:24:00,
2014-08-22 13:29:00,74.8,64.0,29.97,South,181,4.0,6.0,69,0.00,,,0.00,meteobridge,2014-08-22 20:29:00,
2014-08-22 13:34:00,74.8,64.4,29.96,SW,229,0.9,6.9,70,0.00,,,0.00,meteobridge,2014-08-22 20:34:00,
2014-08-22 13:39:00,74.7,63.9,29.96,SW,232,2.9,6.9,69,0.00,,,0.00,meteobridge,2014-08-22 20:39:00,
2014-08-22 13:44:00,74.5,64.0,29.96,SSW,195,4.0,8.1,70,0.00,,,0.00,meteobridge,2014-08-22 20:44:00,
2014-08-22 13:49:00,74.5,64.4,29.96,WSW,246,2.0,6.9,71,0.00,,,0.00,meteobridge,2014-08-22 20:49:00,
2014-08-22 13:54:00,74.7,64.6,29.96,SSW,194,4.9,6.0,71,0.00,,,0.00,meteobridge,2014-08-22 20:54:00,
2014-08-22 13:59:00,74.8,64.0,29.96,SW,216,2.9,6.0,69,0.00,,,0.00,meteobridge,2014-08-22 20:59:00,
2014-08-22 14:04:00,74.8,64.4,29.96,SW,214,6.9,6.9,70,0.00,,,0.00,meteobridge,2014-08-22 21:04:00,
2014-08-22 14:09:00,74.8,64.0,29.96,WSW,238,0.9,6.0,69,0.00,,,0.00,meteobridge,2014-08-22 21:09:00,
2014-08-22 14:14:00,75.0,64.6,29.96,SW,220,2.0,6.9,70,0.00,,,0.00,meteobridge,2014-08-22 21:14:00,
2014-08-22 14:19:00,75.2,64.4,29.96,SW,236,4.9,8.1,69,0.00,,,0.00,meteobridge,2014-08-22 21:19:00,
2014-08-22 14:24:00,75.2,64.4,29.96,WSW,244,6.0,6.9,69,0.00,,,0.00,meteobridge,2014-08-22 21:24:00,
2014-08-22 14:29:00,75.0,64.6,29.96,SW,232,2.0,6.9,70,0.00,,,0.00,meteobridge,2014-08-22 21:29:00,
2014-08-22 14:34:00,74.8,64.0,29.96,SW,226,4.9,6.9,69,0.00,,,0.00,meteobridge,2014-08-22 21:34:00,
2014-08-22 14:39:00,74.8,64.4,29.95,SW,235,6.9,6.9,70,0.00,,,0.00,meteobridge,2014-08-22 21:39:00,
2014-08-22 14:44:00,74.5,64.4,29.96,WSW,237,4.0,6.9,71,0.00,,,0.00,meteobridge,2014-08-22 21:44:00,
2014-08-22 14:49:00,74.7,64.6,29.96,WSW,250,4.9,6.0,71,0.00,,,0.00,meteobridge,2014-08-22 21:49:00,
2014-08-22 14:54:00,74.7,64.6,29.95,WNW,294,4.9,8.1,71,0.00,,,0.00,meteobridge,2014-08-22 21:54:00,
2014-08-22 14:59:00,74.8,64.4,29.95,WSW,242,8.1,8.9,70,0.00,,,0.00,meteobridge,2014-08-22 21:59:00,
2014-08-22 15:04:00,74.8,64.4,29.95,SSW,206,6.9,8.1,70,0.00,,,0.00,meteobridge,2014-08-22 22:04:00,
2014-08-22 15:09:00,74.8,64.4,29.95,West,267,0.9,4.0,70,0.00,,,0.00,meteobridge,2014-08-22 22:09:00,
2014-08-22 15:14:00,75.0,64.6,29.95,SW,221,2.9,6.9,70,0.00,,,0.00,meteobridge,2014-08-22 22:14:00,
2014-08-22 15:19:00,75.2,65.1,29.95,West,262,2.9,6.9,71,0.00,,,0.00,meteobridge,2014-08-22 22:19:00,
2014-08-22 15:24:00,74.8,64.4,29.94,WSW,258,2.0,4.0,70,0.00,,,0.00,meteobridge,2014-08-22 22:24:00,